Owatonna, MN

3:17 AM CST on February 10, 2016 (GMT -0600)
Owatonna Degner Regional

Weather History for KOWA - January, 2012

Change the Weather History Date:

Monday, January 23, 2012

  Actual Average Record
Temperature  
Mean Temperature 24 °F -  
Max Temperature 28 °F 26 °F 53 °F (1981)
Min Temperature 21 °F 5 °F -25 °F (1963)
Degree Days  
Heating Degree Days 40    
Moisture  
Dew Point 23 °F    
Average Humidity 91    
Maximum Humidity 100    
Minimum Humidity 86    
Precipitation  
Precipitation 0.03 in - - ()
Sea Level Pressure  
Sea Level Pressure 29.60 in    
Wind  
Wind Speed 12 mph (WNW)    
Max Wind Speed 21 mph    
Max Gust Speed 29 mph    
Visibility 4 miles    
Events Snow    
Averages and records for this station are not official NWS values.
T = Trace of Precipitation, MM = Missing Value Source: NWS Daily Summary

Daily Weather History Graph

Daily Weather History Graph

Search for Another Location

Airport or City:

Trip Planner

Search our weather history database for the weather conditions in past years. The results will help you decide how hot, cold, wet, or windy it might be!

Date:

Astronomy

Jan. 23, 2012 Rise Set
Actual Time 7:39 AM CST 5:10 PM CST
Civil Twilight 7:08 AM CST 5:41 PM CST
Nautical Twilight 6:33 AM CST 6:17 PM CST
Astronomical Twilight 5:58 AM CST 6:51 PM CST
Moon 7:33 AM CST (1/23) 6:01 PM CST (1/23)
Length of Visible Light 10h 33m
Length of Day
9h 30m
New Moon, 0% of the Moon is Illuminated
Jan 23
New Moon
Jan 30
First Quarter
Feb 7
Full
Feb 14
Last Quarter
Feb 21
New

Hourly Weather History & Observations

Time (CST) Temp. Windchill Dew Point Humidity Pressure Visibility Wind Dir Wind Speed Gust Speed Precip Events Conditions
12:14 AM 28.4 °F 21.2 °F 28.4 °F 100% 29.43 in 3.0 mi NNE 6.9 mph - N/A Snow Light Snow
12:53 AM 28.4 °F 19.7 °F 28.4 °F 100% 29.41 in 2.0 mi North 9.2 mph - N/A Snow Light Snow
1:13 AM 28.4 °F 19.7 °F 28.4 °F 100% 29.43 in 1.8 mi North 9.2 mph - N/A Snow Light Snow
1:33 AM 28.4 °F 21.2 °F 26.6 °F 93% 29.41 in 1.8 mi North 6.9 mph - N/A Snow Light Snow
1:54 AM 28.4 °F 19.7 °F 26.6 °F 93% 29.42 in 3.0 mi NNW 9.2 mph - N/A Snow Light Snow
2:33 AM 26.6 °F 19.1 °F 26.6 °F 100% 29.44 in 0.8 mi NNW 6.9 mph - 0.01 in Snow Snow
2:54 AM 26.6 °F 17.5 °F 26.6 °F 100% 29.46 in 0.8 mi NNW 9.2 mph - 0.01 in Snow Snow
3:14 AM 26.6 °F 17.5 °F 26.6 °F 100% 29.45 in 0.5 mi NW 9.2 mph - N/A Snow Heavy Snow
3:34 AM 26.6 °F 17.5 °F 26.6 °F 100% 29.46 in 0.8 mi NW 9.2 mph - N/A Snow Snow
3:53 AM 26.6 °F 17.5 °F 26.6 °F 100% 29.46 in 1.2 mi NW 9.2 mph - 0.01 in Snow Light Snow
4:13 AM 26.6 °F 17.5 °F 24.8 °F 93% 29.46 in 2.5 mi NW 9.2 mph - N/A Snow Light Snow
4:34 AM 26.6 °F 16.2 °F 24.8 °F 93% 29.46 in 4.0 mi NW 11.5 mph - N/A Snow Light Snow
4:54 AM 26.6 °F 15.7 °F 24.8 °F 93% 29.47 in 5.0 mi NW 12.7 mph - N/A Snow Light Snow
5:13 AM 26.6 °F 15.7 °F 24.8 °F 93% 29.47 in 4.0 mi NW 12.7 mph - N/A   Overcast
5:33 AM 24.8 °F 12.4 °F 24.8 °F 100% 29.48 in 2.5 mi NW 15.0 mph - N/A Snow Light Snow
5:54 AM 24.8 °F 13.4 °F 23.0 °F 93% 29.49 in 3.0 mi NW 12.7 mph - N/A Snow Light Snow
6:14 AM 24.8 °F 12.9 °F 23.0 °F 93% 29.50 in 2.5 mi WNW 13.8 mph - N/A Snow Light Snow
6:33 AM 24.8 °F 12.4 °F 23.0 °F 93% 29.51 in 1.8 mi WNW 15.0 mph - N/A Snow Light Snow
6:54 AM 24.8 °F 12.4 °F 21.2 °F 86% 29.52 in 2.0 mi WNW 15.0 mph 19.6 mph 0.01 in Snow Light Snow
7:13 AM 24.8 °F 13.4 °F 21.2 °F 86% 29.53 in 2.0 mi WNW 12.7 mph - N/A Snow Light Snow
7:54 AM 24.8 °F 12.4 °F 21.2 °F 86% 29.54 in - WNW 15.0 mph - N/A Snow Light Snow
8:14 AM 24.8 °F 12.4 °F 21.2 °F 86% 29.54 in 1.8 mi WNW 15.0 mph - N/A   Overcast
8:34 AM 24.8 °F 12.9 °F 21.2 °F 86% 29.55 in 1.0 mi WNW 13.8 mph - N/A Snow Light Snow
9:18 AM 24.8 °F 13.4 °F 21.2 °F 86% 29.57 in 1.5 mi WNW 12.7 mph - N/A Snow Light Snow
9:34 AM 24.8 °F 12.4 °F 21.2 °F 86% 29.57 in - WNW 15.0 mph - N/A Snow Light Snow
9:54 AM 24.8 °F 12.9 °F 23.0 °F 93% 29.57 in 1.5 mi WNW 13.8 mph - N/A   Mostly Cloudy
10:14 AM - - 23.0 °F N/A% 29.58 in 2.5 mi WNW 16.1 mph - N/A   Unknown
10:33 AM 26.6 °F 14.3 °F 23.0 °F 86% 29.60 in 3.0 mi WNW 16.1 mph - N/A Snow Light Snow
10:53 AM 26.6 °F 14.3 °F 23.0 °F 86% 29.60 in 4.0 mi WNW 16.1 mph 20.7 mph N/A Snow Light Snow
11:14 AM 26.6 °F 14.7 °F 23.0 °F 86% 29.60 in 5.0 mi WNW 15.0 mph - N/A   Overcast
11:34 AM 26.6 °F 14.7 °F 23.0 °F 86% 29.60 in 7.0 mi WNW 15.0 mph - N/A   Overcast
12:14 PM 28.4 °F 17.5 °F 24.8 °F 86% 29.61 in 5.0 mi WNW 13.8 mph - N/A   Overcast
12:34 PM 28.4 °F 16.2 °F 24.8 °F 86% 29.61 in 5.0 mi WNW 17.3 mph - N/A   Overcast
12:53 PM 26.6 °F 13.4 °F 24.8 °F 93% 29.61 in 3.0 mi West 18.4 mph - N/A   Overcast
1:14 PM 26.6 °F 13.8 °F 24.8 °F 93% 29.62 in 2.5 mi WNW 17.3 mph 25.3 mph N/A   Overcast
1:34 PM 26.6 °F 13.4 °F 24.8 °F 93% 29.63 in 3.0 mi WNW 18.4 mph 24.2 mph N/A   Overcast
1:53 PM 24.8 °F 10.7 °F 23.0 °F 93% 29.64 in 4.0 mi West 19.6 mph - N/A   Overcast
2:34 PM 24.8 °F 11.5 °F 21.2 °F 86% 29.66 in 5.0 mi WNW 17.3 mph 26.5 mph N/A   Overcast
3:14 PM 24.8 °F 11.9 °F 21.2 °F 86% 29.69 in 5.0 mi West 16.1 mph 23.0 mph N/A   Overcast
3:34 PM 24.8 °F 12.4 °F 21.2 °F 86% 29.69 in 5.0 mi WNW 15.0 mph - N/A   Overcast
3:53 PM 24.8 °F 10.7 °F 21.2 °F 86% 29.71 in 4.0 mi WNW 19.6 mph 28.8 mph N/A   Overcast
4:14 PM 23.0 °F 8.0 °F 19.4 °F 86% 29.72 in 5.0 mi West 20.7 mph 26.5 mph N/A   Overcast
4:34 PM 23.0 °F 11.7 °F 21.2 °F 93% 29.73 in 7.0 mi West 11.5 mph - N/A   Overcast
4:54 PM 23.0 °F 8.0 °F 19.4 °F 86% 29.74 in 7.0 mi West 20.7 mph - N/A   Overcast
5:14 PM 21.2 °F 6.8 °F 19.4 °F 93% 29.76 in 7.0 mi West 17.3 mph 23.0 mph N/A   Overcast
5:33 PM 21.2 °F 7.8 °F 19.4 °F 93% 29.77 in 7.0 mi West 15.0 mph 19.6 mph N/A   Overcast
5:54 PM 21.2 °F 6.4 °F 19.4 °F 93% 29.78 in 7.0 mi West 18.4 mph - N/A   Overcast
6:14 PM 21.2 °F 7.3 °F 19.4 °F 93% 29.80 in 7.0 mi West 16.1 mph 24.2 mph N/A   Overcast
6:34 PM 21.2 °F 7.3 °F 19.4 °F 93% 29.81 in 7.0 mi West 16.1 mph 23.0 mph N/A   Overcast
6:54 PM 21.2 °F 6.4 °F 19.4 °F 93% 29.82 in 7.0 mi West 18.4 mph 21.9 mph N/A   Overcast
7:14 PM 21.2 °F 6.8 °F 19.4 °F 93% 29.83 in 7.0 mi West 17.3 mph - N/A   Overcast
7:33 PM 21.2 °F 6.0 °F 19.4 °F 93% 29.84 in 7.0 mi West 19.6 mph 26.5 mph N/A   Overcast
8:34 PM 21.2 °F 6.8 °F 17.6 °F 86% 29.86 in 7.0 mi West 17.3 mph 21.9 mph N/A   Overcast
8:54 PM 21.2 °F 6.8 °F 17.6 °F 86% 29.87 in 7.0 mi WNW 17.3 mph 24.2 mph N/A   Overcast
9:14 PM 21.2 °F 6.4 °F 17.6 °F 86% 29.87 in 7.0 mi West 18.4 mph 23.0 mph N/A   Overcast
9:34 PM 21.2 °F 7.3 °F 17.6 °F 86% 29.88 in 7.0 mi West 16.1 mph 20.7 mph N/A   Overcast
9:54 PM 21.2 °F 7.8 °F 17.6 °F 86% 29.88 in 10.0 mi West 15.0 mph - N/A   Overcast
10:14 PM 21.2 °F 8.3 °F 17.6 °F 86% 29.88 in 10.0 mi WNW 13.8 mph - N/A   Overcast
10:34 PM 21.2 °F 8.9 °F 17.6 °F 86% 29.89 in 10.0 mi WNW 12.7 mph - N/A   Overcast
10:54 PM 19.4 °F 6.0 °F 17.6 °F 93% 29.89 in 10.0 mi West 13.8 mph 17.3 mph N/A   Overcast
11:14 PM 19.4 °F 7.2 °F 17.6 °F 93% 29.90 in 10.0 mi West 11.5 mph - N/A   Overcast
11:34 PM 21.2 °F 9.5 °F 17.6 °F 86% 29.91 in 10.0 mi West 11.5 mph - N/A   Overcast
11:54 PM 21.2 °F 8.3 °F 17.6 °F 86% 29.92 in 10.0 mi West 13.8 mph - N/A   Overcast